Las Vegas, NM

5:22 AM MST on December 15, 2017 (GMT -0700)
Las Vegas Municipal

Weather History for KLVS - January, 2013

Change the Weather History Date:

Friday, January 18, 2013

  Actual Average Record
Temperature  
Mean Temperature 38 °F -  
Max Temperature 53 °F 45 °F 66 °F (1950)
Min Temperature 24 °F 22 °F -8 °F (1960)
Degree Days  
Heating Degree Days 26    
Moisture  
Dew Point 14 °F    
Average Humidity 44    
Maximum Humidity 72    
Minimum Humidity 20    
Precipitation  
Precipitation 0.00 in - - ()
Sea Level Pressure  
Sea Level Pressure 30.17 in    
Wind  
Wind Speed 8 mph (South)    
Max Wind Speed 17 mph    
Max Gust Speed -    
Visibility 10 miles    
Events      
Averages and records for this station are not official NWS values.
T = Trace of Precipitation, MM = Missing Value Source: NWS Daily Summary

Daily Weather History Graph

Daily Weather History Graph

Search for Another Location

Airport or City:

Trip Planner

Search our weather history database for the weather conditions in past years. The results will help you decide how hot, cold, wet, or windy it might be!

Date:

Astronomy

Jan. 18, 2013 Rise Set
Actual Time 7:08 AM MST 5:14 PM MST
Civil Twilight 6:40 AM MST 5:41 PM MST
Nautical Twilight 6:09 AM MST 6:12 PM MST
Astronomical Twilight 5:39 AM MST 6:43 PM MST
Moon 11:05 AM MST (1/18) No Moon Set
Length of Visible Light 11h 00m
Length of Day
10h 05m
Waxing Crescent, 48% of the Moon is Illuminated
Jan 18
Waxing Crescent
Jan 18
First Quarter
Jan 26
Full
Feb 3
Last Quarter
Feb 10
New

Hourly Weather History & Observations

Time (MST) Temp. Windchill Dew Point Humidity Pressure Visibility Wind Dir Wind Speed Gust Speed Precip Events Conditions
12:53 AM 27.0 °F 14.3 °F 17.1 °F 66% 30.29 in 10.0 mi SSW 17.3 mph - N/A   Clear
1:53 AM 28.9 °F 17.7 °F 17.1 °F 61% 30.26 in 10.0 mi SSW 15.0 mph - N/A   Clear
2:53 AM 25.0 °F 14.8 °F 17.1 °F 72% 30.25 in 10.0 mi South 10.4 mph - N/A   Clear
3:53 AM 24.1 °F 16.0 °F 16.0 °F 71% 30.24 in 10.0 mi South 6.9 mph - N/A   Clear
4:53 AM 25.0 °F 19.3 °F 15.1 °F 66% 30.22 in 10.0 mi South 4.6 mph - N/A   Clear
5:53 AM 25.0 °F - 15.1 °F 66% 30.24 in 10.0 mi Calm Calm - N/A   Clear
6:53 AM 27.0 °F - 15.1 °F 61% 30.24 in 10.0 mi Calm Calm - N/A   Clear
7:53 AM 26.1 °F - 15.1 °F 63% 30.25 in 10.0 mi Calm Calm - N/A   Clear
8:53 AM 33.1 °F 27.7 °F 18.0 °F 54% 30.24 in 10.0 mi South 5.8 mph - N/A   Clear
9:53 AM 37.9 °F 32.7 °F 19.0 °F 47% 30.25 in 10.0 mi South 6.9 mph - N/A   Clear
10:53 AM 43.0 °F 38.2 °F 19.0 °F 38% 30.19 in 10.0 mi South 8.1 mph - N/A   Clear
11:53 AM 48.0 °F - 17.1 °F 29% 30.16 in 10.0 mi SSW 8.1 mph - N/A   Clear
12:53 PM 51.1 °F - 14.0 °F 23% 30.09 in 10.0 mi South 5.8 mph - N/A   Clear
1:53 PM 53.1 °F - 12.9 °F 20% 30.06 in 10.0 mi South 5.8 mph - N/A   Clear
2:53 PM 53.1 °F - 12.0 °F 20% 30.08 in 10.0 mi SSE 4.6 mph - N/A   Clear
3:53 PM 52.0 °F - 12.9 °F 21% 30.09 in 10.0 mi South 4.6 mph - N/A   Clear
4:53 PM 46.9 °F - 19.0 °F 33% 30.11 in 10.0 mi SSE 9.2 mph - N/A   Clear
5:53 PM 37.0 °F 31.0 °F 18.0 °F 46% 30.16 in 10.0 mi SSE 8.1 mph - N/A   Clear
6:53 PM 43.0 °F 39.5 °F 15.1 °F 32% 30.13 in 10.0 mi North 5.8 mph - N/A   Clear
7:53 PM 35.1 °F 29.3 °F 10.0 °F 35% 30.17 in 10.0 mi North 6.9 mph - N/A   Clear
8:53 PM 30.9 °F - 10.9 °F 43% 30.15 in 10.0 mi Calm Calm - N/A   Clear
9:53 PM 33.1 °F 26.9 °F 6.1 °F 32% 30.11 in 10.0 mi North 6.9 mph - N/A   Clear
10:53 PM 33.1 °F 28.7 °F 5.0 °F 31% 30.09 in 10.0 mi NNW 4.6 mph - N/A   Clear
11:53 PM 32.0 °F 26.4 °F 3.0 °F 29% 30.06 in 10.0 mi NNW 5.8 mph - N/A   Clear